St. Thomas, VI

2:27 AM AST on November 20, 2017 (GMT -0400)
King

Weather History for TIST - November, 2013

Change the Weather History Date:

Friday, November 8, 2013

  Actual Average Record
Temperature  
Mean Temperature 82 °F 82 °F  
Max Temperature 87 °F 87 °F 93 °F (1993)
Min Temperature 76 °F 76 °F 70 °F (1972)
Cooling Degree Days 17 17  
Month to date cooling degree days 129 136  
Year to date cooling degree days 5188 5247  
Growing Degree Days 31 (Base 50)    
Moisture  
Dew Point 76 °F    
Average Humidity 85    
Maximum Humidity 100    
Minimum Humidity 70    
Precipitation  
Precipitation T in 0.19 in 1.63 in (2004)
Month to date precipitation 5.05 1.59  
Year to date precipitation 41.76 32.74  
Sea Level Pressure  
Sea Level Pressure 29.92 in    
Wind  
Wind Speed 6 mph (ESE)    
Max Wind Speed 15 mph    
Max Gust Speed 18 mph    
Visibility 10 miles    
Events      
T = Trace of Precipitation, MM = Missing Value Source: NWS Daily Summary

Daily Weather History Graph

Daily Weather History Graph

Search for Another Location

Airport or City:

Trip Planner

Search our weather history database for the weather conditions in past years. The results will help you decide how hot, cold, wet, or windy it might be!

Date:

Astronomy

Nov. 08, 2013 Rise Set
Actual Time 6:22 AM AST 5:44 PM AST
Civil Twilight 6:00 AM AST 6:07 PM AST
Nautical Twilight 5:33 AM AST 6:33 PM AST
Astronomical Twilight 5:07 AM AST 6:59 PM AST
Moon 11:14 AM AST (11/8) 10:58 PM AST (11/8)
Length of Visible Light 12h 07m
Length of Day
11h 21m
Waxing Crescent, 32% of the Moon is Illuminated
Nov 8
Waxing Crescent
Nov 10
First Quarter
Nov 17
Full
Nov 25
Last Quarter
Dec 2
New

Hourly Weather History & Observations

Time (AST) Temp. Heat Index Dew Point Humidity Pressure Visibility Wind Dir Wind Speed Gust Speed Precip Events Conditions
12:53 AM 77.0 °F - 75.9 °F 96% 29.91 in 10.0 mi East 4.6 mph - 0.00 in   Clear
1:53 AM 77.0 °F - 75.9 °F 96% 29.89 in 10.0 mi East 3.5 mph - N/A   Clear
2:53 AM 79.0 °F - 75.9 °F 90% 29.89 in 10.0 mi East 3.5 mph - N/A   Clear
3:53 AM 78.1 °F - 75.9 °F 93% 29.88 in 10.0 mi Calm Calm - N/A   Clear
4:53 AM 78.1 °F - 75.9 °F 93% 29.89 in 10.0 mi Calm Calm - N/A   Clear
5:53 AM 75.9 °F - 75.0 °F 97% 29.90 in 10.0 mi East 3.5 mph - N/A   Partly Cloudy
6:53 AM 78.1 °F - 75.9 °F 93% 29.93 in 10.0 mi East 3.5 mph - N/A   Scattered Clouds
7:53 AM 82.0 °F 89.4 °F 75.9 °F 82% 29.94 in 10.0 mi East 6.9 mph - N/A   Clear
8:53 AM 84.0 °F 91.9 °F 75.0 °F 74% 29.96 in 10.0 mi East 9.2 mph - N/A   Clear
9:53 AM 84.9 °F 93.3 °F 75.0 °F 72% 29.97 in 10.0 mi SSE 9.2 mph - N/A   Scattered Clouds
10:53 AM 86.0 °F 96.9 °F 77.0 °F 74% 29.97 in 10.0 mi East 4.6 mph - N/A   Scattered Clouds
11:53 AM 84.9 °F 94.1 °F 75.9 °F 74% 29.94 in 10.0 mi SSE 11.5 mph - N/A   Scattered Clouds
12:53 PM 84.9 °F 94.1 °F 75.9 °F 74% 29.91 in 10.0 mi SSE 10.4 mph - N/A   Clear
1:53 PM 86.0 °F 96.0 °F 75.9 °F 72% 29.90 in 10.0 mi SE 11.5 mph - N/A   Clear
2:53 PM 84.9 °F 95.3 °F 77.0 °F 77% 29.88 in 10.0 mi SE 11.5 mph - N/A   Clear
3:53 PM 84.9 °F 93.3 °F 75.0 °F 72% 29.88 in 10.0 mi SSE 9.2 mph - N/A   Clear
4:53 PM 84.0 °F 91.9 °F 75.0 °F 74% 29.88 in 10.0 mi SE 9.2 mph - N/A   Clear
5:53 PM 82.9 °F 90.2 °F 75.0 °F 77% 29.90 in 10.0 mi ESE 8.1 mph - N/A   Clear
6:53 PM 81.0 °F 87.3 °F 75.9 °F 85% 29.91 in 10.0 mi East 4.6 mph - N/A   Clear
7:53 PM 81.0 °F 87.3 °F 75.9 °F 85% 29.93 in 10.0 mi East 4.6 mph - N/A   Clear
8:53 PM 80.1 °F 85.4 °F 75.9 °F 87% 29.94 in 10.0 mi ENE 3.5 mph - N/A   Clear
9:53 PM 80.1 °F 85.1 °F 75.0 °F 85% 29.95 in 10.0 mi East 5.8 mph - N/A   Clear
10:53 PM 79.0 °F - 75.0 °F 88% 29.96 in 10.0 mi ESE 5.8 mph - N/A   Clear
11:53 PM 80.1 °F 85.4 °F 75.9 °F 87% 29.95 in 10.0 mi East 6.9 mph - N/A   Clear